STARLINK-2155, 48557

Orbit data source: Space-Track

STARLINK-2155, 48557 is a payload satellite owned by SpaceX/Seattle (US) in LEO that was launched on Sat, 15 May 2021 UTC via an FALCON 9 launch vehicle from the Air Force Eastern Test Range (AFETR). Payload-class satellites include a variety of spacecraft equipped with specific instruments for various scientific and technological missions. These include communications satellites like Starlink; space stations such as the ISS; scientific satellites like the Hubble; Earth observation satellites from companies like Planet Labs, Umbra, and HawkEye 360; GPS; miniature CubeSats for education and research; and military/defense satellites.

Loading next visibility...
Identifier
48557, 2021-041E
Orbit
LEO
Country
Flag of USUS
Related business
Manufacturer
SpaceX/Seattle
Mission
Operational Commercial Communications
Bus & Motor
STARLINK, Unknown motor
Mass
260 kg wet, ~248 kg dry
Launch date (UTC)
2021-05-15 (5 years ago)
Launch vehicle
FALCON 9
Launch site
Air Force Eastern Test Range (AFETR)
Object type
Payload
Rocket body
Debris
Shape & HBR
Box + 1 Pan, 10.1 m
Radar Cross Section
13.562 m², Large (>1 m²)

Expand to show TLE details & history
Last TLE update: 2 days ago

TLE from 2 days ago
0 STARLINK-2155
1 48557U 21041E   26170.96716835  .00001487  00000-0  59648-4 0  9994
2 48557  53.1608  11.0449 0000926  82.5376 277.5731 15.31710196280940
Epoch: 2026-06-19T23:12Z
TLE epoch observation values (Epoch: 2026-06-19T23:12:43.345Z)
Latitude
0.00001°
Longitude
114.67575°
Altitude
471.526 km
Speed
7.632 km/s
True Right ascension
00h 44m 10s
True Declination
0° 00' 00"
Sunlit
Object was in daylight at epoch
Visualization orbit readout
Latitude
Unknown
Longitude
Unknown
Altitude
Unknown
Speed
Unknown
Apparent Right ascension
Unknown
Apparent Declination
Unknown
Sunlit
N/A
Visualization observer readout
Local Sidereal Time
21:39:12
Azimuth
Unknown
Elevation
Unknown
Doppler factor
Unknown
Orbital elements
Apogee altitude
471.6 km
Perigee altitude
470.332 km
Semi-major axis
6,849.103 km
Eccentricity
0.00009
Inclination
53.1608°
RAAN
11.0449°
Arg. of periapsis
82.5376°
True anomaly
277.56258°
Mean anomaly
277.5731°
Eccentric anomaly
277.56784°
Mean motion
3.82906 °/min
Orbital period
94.02 mins
BSTAR
0.000059648
Loading maneuver chart data...
Computing Atmospheric mass density...
Loading historical data...
Loading historical data...
Loading historical data...
Loading historical data...
Loading historical data...
Loading historical data...
Loading historical data...

Documentation

Showing up to 5 results
|